Flag for Germany Weather past 2 weeks in Meppen, Lower Saxony, Germany

Now
54 °F

Low clouds.


Feels Like: 53 °F
Forecast: 54 / 64 °F
Wind: 3 mph from Southwest

Location: Meppen

Current Time: Jul 29, 2015 at 9:25:04 AM

Latest Report: Jul 29, 2015 at 8:00 AM


Visibility: 22 mi

Pressure: 29.68 "Hg

Humidity: 89%

Dew point: 50 °F

Location of MeppenLocation

Historic Weather in Meppen — Graph

°F

Meppen temperature yesterday

Maximum temperature yesterday: 65 °F (at 7:00 PM)
Minimum temperature yesterday: 56 °F (at 6:00 AM)
Average temperature yesterday: 60 °F

Past Weeks' High & Low Weather Summary

 TemperatureHumidityPressure
High82 °F (Jul 17, 3:00 PM)94% (Jul 15, 7:00 AM)30.11 "Hg (Jul 15, 7:00 AM)
Low49 °F (Jul 20, 6:00 AM)37% (Jul 16, 6:00 PM)29.38 "Hg (Jul 25, 4:00 PM)
Average64 °F74%29.86 "Hg
* Reported Jul 14 9:00 AM — Jul 29 8:00 AM, Meppen, Weather by CustomWeather, © 2015

Note: Actual official high and low records may vary slightly from our data, if they occured in-between our weather recording intervals... More about our weather records

Advertising

Meppen weather history for previous 24 hours

 ConditionsComfort  
Time TempWeatherWind HumidityBarometerVisibility
8:00 AM
Wed, Jul 29
54 °FLow clouds.3 mph89%29.68 "Hg22 mi
7:00 AM54 °FLow clouds.5 mph87%29.68 "Hg19 mi
6:00 AM53 °FCool.5 mph88%29.67 "Hg5 mi
4:00 AM56 °FCool.5 mph82%29.67 "Hg5 mi
3:00 AM56 °FCool.5 mph81%29.67 "Hg5 mi
1:00 AM57 °FCool.5 mph80%29.68 "Hg5 mi
12:00 AM57 °FCool.6 mph82%29.68 "Hg5 mi
10:00 PM
Tue, Jul 28
57 °FCool.5 mph81%29.67 "Hg5 mi
9:00 PM62 °FCool.3 mph62%29.66 "Hg6 mi
8:00 PM63 °FMild.7 mph58%29.66 "Hg6 mi
7:00 PM65 °FMild.7 mph52%29.64 "Hg6 mi
6:00 PM64 °FMild.7 mph63%29.64 "Hg5 mi
4:00 PM62 °FCool.8 mph73%29.63 "Hg5 mi
3:00 PM61 °FSprinkles. Overcast.7 mph81%29.62 "Hg17 mi
2:00 PM62 °FSprinkles. Overcast.7 mph76%29.60 "Hg15 mi
1:00 PM61 °FSprinkles. Overcast.7 mph78%29.60 "Hg19 mi
12:00 PM62 °FOvercast.7 mph75%29.59 "Hg19 mi
10:00 AM59 °FOvercast.6 mph83%29.58 "Hg14 mi
Weather by CustomWeather, © 2015

See weather overviewHow to use our weather pages